N750SB EHRD-LIEE

Flight info

Callsign N750SB
Flight time N/A
Altitude 39000
Route INKET DCT BATAK DCT GESLO N852 SUTAL DCT DEVDI DCT AKASU DCT PIDAD DCT GOPAT DCT KOVAS
Aircraft C750/M-SBDE3FGHRWXY/S

Departure

Time 2026-04-28 21:16
Airport Rotterdam The Hague Airport (EHRD)

Arrival

Time N/A
Airport Cagliari Elmas Airport (LIEE)
Time Latitude Longitude Altitude Speed Heading
2026-04-28 21:04 51.95060 4.43806 -3 ft 0 kts 325°
2026-04-28 21:06 51.95048 4.43819 -3 ft 2 kts 317°
2026-04-28 21:06 51.95043 4.43839 -3 ft 0 kts 241°
2026-04-28 21:10 51.95042 4.43837 -3 ft 0 kts 241°
2026-04-28 21:11 51.95041 4.43834 -3 ft 0 kts 241°
2026-04-28 21:11 51.95035 4.43821 -3 ft 5 kts 233°
2026-04-28 21:11 51.95018 4.43772 -3 ft 7 kts 255°
2026-04-28 21:11 51.95058 4.43701 -3 ft 9 kts 328°
2026-04-28 21:12 51.95111 4.43644 -3 ft 9 kts 325°
2026-04-28 21:12 51.95161 4.43591 -3 ft 8 kts 327°
2026-04-28 21:12 51.95208 4.43544 -3 ft 8 kts 329°
2026-04-28 21:12 51.95252 4.43500 -3 ft 7 kts 328°
2026-04-28 21:13 51.95259 4.43444 -3 ft 5 kts 246°
2026-04-28 21:13 51.95241 4.43396 -3 ft 5 kts 238°
2026-04-28 21:13 51.95220 4.43344 -3 ft 9 kts 237°
2026-04-28 21:13 51.95180 4.43243 -3 ft 11 kts 237°
2026-04-28 21:14 51.95151 4.43142 -3 ft 10 kts 281°
2026-04-28 21:14 51.95193 4.43097 -3 ft 0 kts
2026-04-28 21:14 51.95197 4.43097 -3 ft 3 kts
2026-04-28 21:14 51.95222 4.43097 -3 ft 5 kts
2026-04-28 21:15 51.95272 4.43100 -2 ft 8 kts
2026-04-28 21:15 51.95316 4.43121 -2 ft 6 kts 26°
2026-04-28 21:15 51.95468 4.43462 -4 ft 90 kts 56°
2026-04-28 21:15 51.95931 4.44592 196 ft 135 kts 56°
2026-04-28 21:16 51.96446 4.45911 691 ft 142 kts 62°
2026-04-28 21:16 51.96879 4.47348 1303 ft 140 kts 66°
2026-04-28 21:16 51.97323 4.48741 1978 ft 137 kts 68°
2026-04-28 21:16 51.97770 4.50096 2597 ft 135 kts 68°
2026-04-28 21:17 51.98208 4.51438 3186 ft 134 kts 67°
2026-04-28 21:17 51.98649 4.52786 3740 ft 138 kts 67°
2026-04-28 21:17 51.99119 4.54233 4348 ft 151 kts 65°
2026-04-28 21:17 51.99634 4.55811 4972 ft 168 kts 64°
2026-04-28 21:18 52.00205 4.57580 5680 ft 183 kts 65°
2026-04-28 21:18 52.00415 4.59669 6380 ft 198 kts 95°
2026-04-28 21:18 51.99877 4.61796 7161 ft 215 kts 124°
2026-04-28 21:18 51.98632 4.63279 8028 ft 229 kts 148°
2026-04-28 21:19 51.97182 4.64414 9061 ft 233 kts 150°
2026-04-28 21:19 51.95738 4.65571 10105 ft 234 kts 149°
2026-04-28 21:19 51.94283 4.66766 11044 ft 234 kts 149°
2026-04-28 21:19 51.92831 4.67954 11967 ft 233 kts 149°
2026-04-28 21:20 51.91380 4.69136 12878 ft 233 kts 149°
2026-04-28 21:20 51.89930 4.70315 13792 ft 233 kts 149°
2026-04-28 21:20 51.88479 4.71496 14634 ft 233 kts 149°
2026-04-28 21:20 51.87035 4.72671 15448 ft 232 kts 149°
2026-04-28 21:21 51.85591 4.73845 16262 ft 232 kts 149°
2026-04-28 21:21 51.84145 4.75019 17088 ft 233 kts 149°
2026-04-28 21:21 51.82696 4.76194 17915 ft 233 kts 149°
2026-04-28 21:21 51.81723 4.76941 18462 ft 236 kts 154°
2026-04-28 21:22 51.79508 4.77348 19357 ft 245 kts 175°
2026-04-28 21:22 51.78378 4.77397 19871 ft 244 kts 174°
2026-04-28 21:22 51.76679 4.77518 20649 ft 244 kts 173°
2026-04-28 21:22 51.74976 4.77667 21328 ft 250 kts 172°
2026-04-28 21:23 51.73120 4.77827 21319 ft 286 kts 173°
2026-04-28 21:23 51.71024 4.77957 21398 ft 316 kts 174°
2026-04-28 21:23 51.68758 4.78086 21697 ft 335 kts 175°
2026-04-28 21:23 51.66323 4.78252 21689 ft 363 kts 174°
2026-04-28 21:24 51.63709 4.78443 21678 ft 388 kts 174°
2026-04-28 21:24 51.60925 4.78634 21679 ft 410 kts 175°
2026-04-28 21:24 51.58065 4.79033 22130 ft 414 kts 166°
2026-04-28 21:24 51.55360 4.80416 22794 ft 412 kts 154°
2026-04-28 21:25 51.52802 4.82510 23318 ft 416 kts 149°
2026-04-28 21:25 51.50231 4.84707 23851 ft 421 kts 149°
2026-04-28 21:25 51.47622 4.86898 24312 ft 426 kts 149°
2026-04-28 21:25 51.44972 4.89107 24797 ft 430 kts 150°
2026-04-28 21:26 51.42306 4.91347 25279 ft 433 kts 149°
2026-04-28 21:26 51.39629 4.93603 25772 ft 437 kts 149°
2026-04-28 21:26 51.36926 4.95867 26277 ft 440 kts 149°
2026-04-28 21:26 51.34201 4.98139 26794 ft 443 kts 149°
2026-04-28 21:27 51.31494 5.00400 27304 ft 445 kts 149°
2026-04-28 21:27 51.28741 5.02699 27848 ft 448 kts 149°
2026-04-28 21:27 51.25958 5.05017 28405 ft 451 kts 149°
2026-04-28 21:27 51.23169 5.07336 28971 ft 453 kts 149°
2026-04-28 21:28 51.20360 5.09669 29547 ft 456 kts 150°
2026-04-28 21:28 51.17535 5.12013 30133 ft 458 kts 150°
2026-04-28 21:28 51.14731 5.14335 30649 ft 461 kts 150°
2026-04-28 21:28 51.11875 5.16697 31147 ft 463 kts 150°
2026-04-28 21:29 51.09014 5.19061 31661 ft 464 kts 150°
2026-04-28 21:29 51.06141 5.21431 32180 ft 466 kts 150°
2026-04-28 21:29 51.03255 5.23807 32696 ft 467 kts 150°
2026-04-28 21:29 51.00362 5.26187 33226 ft 468 kts 151°
2026-04-28 21:30 50.97462 5.28569 33758 ft 469 kts 150°
2026-04-28 21:30 50.94551 5.30955 34288 ft 470 kts 150°
2026-04-28 21:30 50.91641 5.33339 34732 ft 471 kts 150°
2026-04-28 21:30 50.88763 5.35694 35179 ft 473 kts 150°
2026-04-28 21:31 50.85832 5.38087 35633 ft 474 kts 151°
2026-04-28 21:31 50.82890 5.40486 36079 ft 475 kts 152°
2026-04-28 21:31 50.79937 5.42890 36547 ft 477 kts 152°
2026-04-28 21:31 50.76970 5.45304 37007 ft 478 kts 151°
2026-04-28 21:32 50.74044 5.47680 37452 ft 480 kts 152°
2026-04-28 21:32 50.71066 5.50095 37897 ft 481 kts 153°
2026-04-28 21:32 50.68082 5.52511 38345 ft 483 kts 153°
2026-04-28 21:32 50.65085 5.54934 38799 ft 484 kts 152°
2026-04-28 21:33 50.62082 5.57358 39171 ft 486 kts 153°
2026-04-28 21:33 50.59067 5.59790 39533 ft 487 kts 153°
2026-04-28 21:33 50.56046 5.62222 39876 ft 488 kts 153°
2026-04-28 21:33 50.53014 5.64659 40188 ft 490 kts 153°
2026-04-28 21:34 50.46843 5.69609 40183 ft 509 kts 153°
2026-04-28 21:34 50.40420 5.74745 40202 ft 525 kts 153°
2026-04-28 21:35 50.33844 5.79989 40187 ft 534 kts 153°
2026-04-28 21:35 50.27173 5.85290 40182 ft 540 kts 154°
2026-04-28 21:36 50.20608 5.90493 40185 ft 520 kts 154°